When you browse on this site, cookies collect data to enhance your experience and personalize the content and advertising you see.
Visit our Privacy Policy to learn more. By continuing to use the site, you agree to this use of cookies and data.

Hourly Weather Nazaret

Today, 13 July, Monday

Time Temperature Precipitation Wind Pressure Humidity
00:00 +22°C° 0 mm 1 mps 721 mmHg 91%
01:00 +22°C° 0 mm 1 mps 721 mmHg 91%
02:00 +22°C° 0 mm 1 mps 721 mmHg 91%
03:00 +22°C° 0 mm 1 mps 721 mmHg 91%
04:00 +22°C° 0 mm 1 mps 721 mmHg 91%
05:00 +22°C° 0 mm 1 mps 722 mmHg 91%
06:00 +24°C° 0 mm 2 mps 722 mmHg 82%
07:00 +25°C° 0 mm 2 mps 722 mmHg 74%
08:00 +27°C° 0 mm 3 mps 722 mmHg 65%
09:00 +29°C° 0 mm 4 mps 722 mmHg 59%
10:00 +32°C° 0 mm 4 mps 722 mmHg 52%
11:00 +34°C° 0 mm 5 mps 722 mmHg 46%
12:00 +34°C° 0 mm 6 mps 722 mmHg 46%
13:00 +34°C° 0 mm 6 mps 721 mmHg 46%
14:00 +34°C° 0 mm 7 mps 721 mmHg 46%
15:00 +33°C° 0 mm 6 mps 721 mmHg 51%
16:00 +30°C° 0 mm 6 mps 721 mmHg 55%
17:00 +29°C° 0 mm 5 mps 721 mmHg 59%
18:00 +27°C° 0 mm 4 mps 721 mmHg 69%
19:00 +25°C° 0 mm 3 mps 721 mmHg 78%
20:00 +24°C° 0 mm 2 mps 721 mmHg 88%
21:00 +23°C° 0 mm 2 mps 721 mmHg 89%
22:00 +23°C° 0 mm 1 mps 721 mmHg 90%
23:00 +22°C° 0 mm 1 mps 721 mmHg 91%

Tomorrow, 14 July, Tuesday

Time Temperature Precipitation Wind Pressure Humidity
00:00 +22°C° 0 mm 1 mps 721 mmHg 91%
01:00 +22°C° 0 mm 1 mps 721 mmHg 91%
02:00 +22°C° 0 mm 1 mps 721 mmHg 91%
03:00 +22°C° 0 mm 1 mps 721 mmHg 92%
04:00 +22°C° 0 mm 1 mps 722 mmHg 92%
05:00 +21°C° 0 mm 1 mps 722 mmHg 92%
06:00 +24°C° 0 mm 1 mps 722 mmHg 82%
07:00 +26°C° 0 mm 1 mps 723 mmHg 71%
08:00 +28°C° 0 mm 1 mps 723 mmHg 61%
09:00 +30°C° 0 mm 2 mps 723 mmHg 54%
10:00 +33°C° 0 mm 3 mps 724 mmHg 48%
11:00 +35°C° 0 mm 3 mps 724 mmHg 42%
12:00 +35°C° 0 mm 4 mps 724 mmHg 42%
13:00 +35°C° 0 mm 6 mps 724 mmHg 42%
14:00 +35°C° 0 mm 7 mps 723 mmHg 43%
15:00 +34°C° 0 mm 6 mps 723 mmHg 45%
16:00 +33°C° 0 mm 5 mps 723 mmHg 47%
17:00 +32°C° 0 mm 5 mps 723 mmHg 50%
18:00 +29°C° 0 mm 4 mps 723 mmHg 60%
19:00 +26°C° 0 mm 3 mps 723 mmHg 70%
20:00 +24°C° 0 mm 2 mps 723 mmHg 80%
21:00 +24°C° 0 mm 2 mps 723 mmHg 81%
22:00 +23°C° 0 mm 2 mps 723 mmHg 82%
23:00 +23°C° 0 mm 2 mps 723 mmHg 82%

Day after tomorrow, 15 July, Wednesday

Time Temperature Precipitation Wind Pressure Humidity
00:00 +23°C° 0 mm 1 mps 723 mmHg 82%
01:00 +22°C° 0 mm 1 mps 723 mmHg 83%
02:00 +22°C° 0 mm 1 mps 723 mmHg 83%
03:00 +22°C° 0 mm 1 mps 723 mmHg 84%
04:00 +22°C° 0 mm 1 mps 724 mmHg 85%
05:00 +22°C° 0 mm 1 mps 724 mmHg 86%
06:00 +24°C° 0 mm 1 mps 724 mmHg 76%
07:00 +27°C° 0 mm 2 mps 725 mmHg 66%
08:00 +30°C° 0 mm 2 mps 726 mmHg 56%
09:00 +31°C° 0 mm 3 mps 726 mmHg 50%
10:00 +34°C° 0 mm 3 mps 726 mmHg 44%
11:00 +36°C° 0 mm 4 mps 726 mmHg 39%
12:00 +36°C° 0 mm 5 mps 725 mmHg 40%
13:00 +35°C° 0 mm 6 mps 725 mmHg 41%
14:00 +35°C° 0 mm 7 mps 725 mmHg 42%
15:00 +34°C° 0 mm 6 mps 725 mmHg 45%
16:00 +33°C° 0 mm 6 mps 725 mmHg 47%
17:00 +32°C° 0 mm 5 mps 724 mmHg 50%
18:00 +29°C° 0 mm 4 mps 724 mmHg 60%
19:00 +26°C° 0 mm 3 mps 724 mmHg 71%
20:00 +24°C° 0 mm 2 mps 724 mmHg 81%
21:00 +24°C° 0 mm 2 mps 724 mmHg 81%
22:00 +23°C° 0 mm 2 mps 724 mmHg 80%
23:00 +23°C° 0 mm 2 mps 724 mmHg 80%

16 July, Thursday

Time Temperature Precipitation Wind Pressure Humidity
00:00 +23°C° 0 mm 2 mps 724 mmHg 80%
01:00 +21°C° 0 mm 2 mps 723 mmHg 80%
02:00 +21°C° 0 mm 2 mps 723 mmHg 80%
03:00 +21°C° 0 mm 2 mps 723 mmHg 83%
04:00 +21°C° 0 mm 2 mps 723 mmHg 86%
05:00 +21°C° 0 mm 2 mps 723 mmHg 89%
06:00 +24°C° 0 mm 2 mps 723 mmHg 79%
07:00 +26°C° 0 mm 3 mps 724 mmHg 69%
08:00 +29°C° 0 mm 3 mps 724 mmHg 58%
09:00 +30°C° 0 mm 4 mps 724 mmHg 52%
10:00 +33°C° 0 mm 4 mps 724 mmHg 45%
11:00 +35°C° 0 mm 5 mps 724 mmHg 39%
12:00 +35°C° 0 mm 5 mps 724 mmHg 39%
13:00 +34°C° 0 mm 6 mps 723 mmHg 40%
14:00 +34°C° 0 mm 7 mps 723 mmHg 41%
15:00 +33°C° 0 mm 6 mps 722 mmHg 44%
16:00 +32°C° 0 mm 6 mps 722 mmHg 48%
17:00 +29°C° 0 mm 5 mps 722 mmHg 51%
18:00 +27°C° 0 mm 4 mps 722 mmHg 61%
19:00 +25°C° 0 mm 3 mps 722 mmHg 71%
20:00 +23°C° 0 mm 2 mps 722 mmHg 82%
21:00 +21°C° 0 mm 2 mps 722 mmHg 83%
22:00 +21°C° 0 mm 2 mps 722 mmHg 85%
23:00 +21°C° 0 mm 1 mps 722 mmHg 87%

17 July, Friday

Time Temperature Precipitation Wind Pressure Humidity
00:00 +21°C° 0 mm 1 mps 721 mmHg 88%
01:00 +21°C° 0 mm 1 mps 721 mmHg 88%
02:00 +21°C° 0 mm 1 mps 721 mmHg 89%
03:00 +20°C° 0 mm 1 mps 721 mmHg 89%
04:00 +20°C° 0 mm 1 mps 721 mmHg 90%
05:00 +20°C° 0 mm 1 mps 721 mmHg 90%
06:00 +21°C° 0 mm 2 mps 722 mmHg 80%
07:00 +25°C° 0 mm 2 mps 722 mmHg 70%
08:00 +27°C° 0 mm 3 mps 723 mmHg 60%
09:00 +29°C° 0 mm 3 mps 723 mmHg 52%
10:00 +31°C° 0 mm 3 mps 723 mmHg 44%
11:00 +34°C° 0 mm 4 mps 723 mmHg 37%
12:00 +34°C° 0 mm 5 mps 723 mmHg 38%
13:00 +34°C° 0 mm 5 mps 722 mmHg 39%
14:00 +34°C° 0 mm 6 mps 722 mmHg 40%
15:00 +32°C° 0 mm 6 mps 722 mmHg 43%
16:00 +30°C° 0 mm 5 mps 722 mmHg 47%
17:00 +29°C° 0 mm 5 mps 721 mmHg 50%
18:00 +27°C° 0 mm 4 mps 721 mmHg 61%
19:00 +25°C° 0 mm 3 mps 721 mmHg 71%
20:00 +21°C° 0 mm 2 mps 721 mmHg 81%
21:00 +22°C° 0 mm 1 mps 721 mmHg 82%
22:00 +22°C° 0 mm 1 mps 721 mmHg 84%
23:00 +21°C° 0 mm 1 mps 721 mmHg 85%

18 July, Saturday

Time Temperature Precipitation Wind Pressure Humidity
00:00 +21°C° 0 mm 1 mps 721 mmHg 86%
01:00 +21°C° 0 mm 1 mps 721 mmHg 86%
02:00 +20°C° 0 mm 1 mps 721 mmHg 87%
03:00 +20°C° 0 mm 1 mps 722 mmHg 88%
04:00 +20°C° 0 mm 1 mps 722 mmHg 89%
05:00 +20°C° 0 mm 1 mps 722 mmHg 89%
06:00 +22°C° 0 mm 1 mps 722 mmHg 79%
07:00 +25°C° 0 mm 1 mps 723 mmHg 70%
08:00 +27°C° 0 mm 2 mps 723 mmHg 60%
09:00 +29°C° 0 mm 2 mps 723 mmHg 52%
10:00 +31°C° 0 mm 3 mps 723 mmHg 45%
11:00 +34°C° 0 mm 3 mps 723 mmHg 38%
12:00 +34°C° 0 mm 4 mps 723 mmHg 39%
13:00 +34°C° 0 mm 5 mps 723 mmHg 39%
14:00 +35°C° 0 mm 6 mps 723 mmHg 40%
15:00 +33°C° 0 mm 5 mps 722 mmHg 43%
16:00 +32°C° 0 mm 5 mps 722 mmHg 45%
17:00 +30°C° 0 mm 4 mps 722 mmHg 48%
18:00 +28°C° 0 mm 4 mps 722 mmHg 59%
19:00 +26°C° 0 mm 3 mps 722 mmHg 69%
20:00 +23°C° 0 mm 2 mps 722 mmHg 79%
21:00 +23°C° 0 mm 2 mps 722 mmHg 81%
22:00 +21°C° 0 mm 2 mps 722 mmHg 83%
23:00 +22°C° 0 mm 1 mps 722 mmHg 84%
Show more